Content
SEND FEEDBACK

Daily
Averages
Monthly
Summary
Canada

QUEBEC CITY, QUEBEC


Home > North America > Canada > Quebec
Elevation: 239 feet     Latitude: 46 48N     Longitude: 071 23W

WEATHER
 
SELECT A DAY
Number of Records: 192,457;   Date Range: 6/30/96 - 8/20/14
 
SHARE

PRINT THIS DATA

[ ← Previous Day ]
WEATHER ALMANAC - FEBRUARY 21, 2013
[ Next Day → ]
[ °C ]   °F
Weather ElementAverageHighLow
Temperature17.3 °F22 °F (1:00 am)13 °F (10:00 pm)
Dewpoint11.8 °F20 °F (1:00 am) (7:00 pm)
Humidity85.7 %93 % (3:00 am)78 % (4:00 pm)
Wind Speed12.6 mph24.2 mph (2:00 am)
Wind Gust31.1 mph (1:43 am)
Weather ElementAverage
Visibility6.1 mi
Wind DirectionWSW (232.7 °)

Weather ElementTotal
Precipitation---
Heating Degree Days47.5 (Base 65)
Averaged from 37 records on February 21, 2013
WEATHER CONDITIONS BREAKOUT
WIND DIRECTION BREAKOUT
WEATHER BY HOUR - FEBRUARY 21, 2013
[ °C ]   °F
Local TimeTemperatureDewpointHumidityBarometerVisibilityWind DirectionWind SpeedGust SpeedPrecipitationEventsConditions
1:00 AM22.0 °F20.0 °F89 %29.59 inWSW (240°)11.5 mph
1:00 AM21.2 °F17.6 °F86 %29.59 in3.0 miSW (230°)20.7 mphSnowLight Snow
1:43 AM19.4 °F0.0 °F1.5 miWSW (240°)23.0 mph31.1 mphSnowLight Snow
2:00 AM19.4 °F15.8 °F86 %29.61 in1.5 miSW (230°)24.2 mphSnowLight Snow
3:00 AM17.6 °F15.8 °F93 %29.64 in1.2 miWSW (240°)20.7 mphSnowLight Snow
3:41 AM17.6 °F0.0 °F3.0 miWSW (240°)19.6 mphSnowLight Snow
4:00 AM18.0 °F16.0 °F87 %29.67 inSW (230°)10.4 mph
4:00 AM17.6 °F14.0 °F86 %29.67 in3.0 miSW (230°)16.1 mph23.0 mphSnowLight Snow
5:00 AM15.8 °F12.2 °F86 %29.70 in4.0 miWSW (240°)16.1 mphSnowLight Snow
6:00 AM15.8 °F12.2 °F86 %29.74 in5.0 miWSW (240°)19.6 mphSnowLight Snow
7:00 AM15.0 °F12.0 °F84 %29.78 inWSW (240°)9.2 mph
7:00 AM14.0 °F10.4 °F86 %29.78 in5.0 miWSW (240°)13.8 mphSnowLight Snow
7:32 AM14.0 °F0.0 °F1.5 miWSW (240°)18.4 mphSnowLight Snow
8:00 AM14.0 °F10.4 °F86 %29.82 in0.8 miSW (230°)12.7 mph18.4 mphSnowLight Snow
8:37 AM14.0 °F0.0 °F1.0 miSW (230°)15.0 mphSnowLight Snow
9:00 AM14.0 °F10.4 °F86 %29.85 in1.0 miSW (230°)15.0 mphSnowLight Snow
9:22 AM14.0 °F0.0 °F1.5 miSSW (210°)15.0 mphSnowLight Snow
10:00 AM14.0 °F10.4 °F86 %29.88 in1.5 miSW (230°)15.0 mphSnowLight Snow
10:00 AM15.0 °F12.0 °F84 %29.88 inSW (230°)8.1 mph
11:00 AM15.8 °F12.2 °F86 %29.91 in1.0 miSW (230°)13.8 mphSnowLight Snow
12:00 PM17.6 °F14.0 °F86 %29.94 in1.5 miSW (230°)12.7 mphSnowLight Snow
1:00 PM19.0 °F16.0 °F81 %29.96 inWSW (240°)6.9 mph
1:00 PM19.4 °F15.8 °F86 %29.96 in5.0 miSW (230°)12.7 mphSnowLight Snow
2:00 PM19.4 °F15.8 °F86 %30.00 in6.0 miSW (230°)13.8 mphSnowLight Snow
3:00 PM21.2 °F17.6 °F86 %30.04 in8.0 miSW (230°)12.7 mphSnowLight Snow
4:00 PM21.0 °F17.0 °F78 %30.09 inSW (220°)5.8 mph
4:00 PM19.4 °F15.8 °F86 %30.09 in15.0 miSW (230°)9.2 mphMostly Cloudy
5:00 PM19.4 °F15.8 °F86 %30.16 in12.0 miWSW (240°)12.7 mphMostly Cloudy
5:37 PM19.4 °F0.0 °F12.0 miWSW (240°)10.4 mphSnowLight Snow Showers
6:00 PM19.4 °F15.8 °F86 %30.19 in10.0 miSW (230°)11.5 mphSnowLight Snow Showers
7:00 PM20.0 °F18.0 °F86 %30.22 inWSW (250°)2.3 mph
7:00 PM19.4 °F15.8 °F86 %30.23 in12.0 miSW (220°)6.9 mphSnowLight Snow Showers
8:00 PM17.6 °F14.0 °F86 %30.25 in15.0 miSW (220°)6.9 mphScattered Clouds
9:00 PM15.8 °F12.2 °F86 %30.26 in15.0 miWest (260°)8.1 mphPartly Cloudy
10:00 PM13.0 °F11.0 °F90 %30.27 inSouth (190°)3.5 mph
10:00 PM14.0 °F8.6 °F79 %30.28 in15.0 miWSW (240°)3.5 mphPartly Cloudy
11:00 PM15.8 °F12.2 °F86 %30.30 in15.0 miWSW (240°)6.9 mphScattered Clouds
Hourly data recorded from CYQB, located miles away from Quebec City, Quebec







STORIES FROM OUR PARTNERS